Time,TemperatureF,DewpointF,PressureIn,WindDirection,WindDirectionDegrees,WindSpeedMPH,WindSpeedGustMPH,Humidity,HourlyPrecipIn,Conditions,Clouds,dailyrainin,SolarRadiationWatts/m^2,SoftwareType,DateUTC
2013-10-15 00:05:00,32.1,27.8,30.50,South,178,0.0,0.0,84,0.00,,,0.00,0,Wunderground v.1.15,2013-10-15 07:05:00,
2013-10-15 00:10:00,31.9,27.9,30.49,South,178,0.0,0.0,85,0.00,,,0.00,0,Wunderground v.1.15,2013-10-15 07:10:00,
2013-10-15 00:20:00,31.9,27.9,30.49,South,178,0.0,0.0,85,0.00,,,0.00,0,Wunderground v.1.15,2013-10-15 07:20:00,
2013-10-15 00:25:00,31.9,27.9,30.49,South,178,0.0,0.0,85,0.00,,,0.00,0,Wunderground v.1.15,2013-10-15 07:25:00,
2013-10-15 00:30:00,31.8,27.8,30.49,South,178,0.0,0.0,85,0.00,,,0.00,0,Wunderground v.1.15,2013-10-15 07:30:00,
2013-10-15 00:40:00,31.8,28.1,30.49,South,178,0.0,0.0,86,0.00,,,0.00,0,Wunderground v.1.15,2013-10-15 07:40:00,
2013-10-15 00:45:00,31.8,28.1,30.49,South,178,0.0,0.0,86,0.00,,,0.00,0,Wunderground v.1.15,2013-10-15 07:45:00,
2013-10-15 00:50:00,31.6,27.6,30.49,South,178,0.0,0.0,85,0.00,,,0.00,0,Wunderground v.1.15,2013-10-15 07:50:00,
2013-10-15 01:00:00,31.3,27.3,30.49,South,178,0.0,0.0,85,0.00,,,0.00,0,Wunderground v.1.15,2013-10-15 08:00:00,
2013-10-15 01:10:00,31.0,27.0,30.48,South,179,0.0,0.0,85,0.00,,,0.00,0,Wunderground v.1.15,2013-10-15 08:10:00,
2013-10-15 01:15:00,30.9,26.9,30.48,South,178,0.0,0.0,85,0.00,,,0.00,0,Wunderground v.1.15,2013-10-15 08:15:00,
2013-10-15 01:25:00,30.7,26.7,30.48,South,178,0.0,0.0,85,0.00,,,0.00,0,Wunderground v.1.15,2013-10-15 08:25:00,
2013-10-15 01:35:00,30.7,27.0,30.48,South,178,0.0,0.0,86,0.00,,,0.00,0,Wunderground v.1.15,2013-10-15 08:35:00,
2013-10-15 01:45:00,30.6,26.6,30.48,South,178,0.0,0.0,85,0.00,,,0.00,0,Wunderground v.1.15,2013-10-15 08:45:00,
2013-10-15 01:50:00,30.6,26.9,30.48,South,178,0.0,0.0,86,0.00,,,0.00,0,Wunderground v.1.15,2013-10-15 08:50:00,
2013-10-15 01:55:00,30.4,26.4,30.49,South,178,0.0,0.0,85,0.00,,,0.00,0,Wunderground v.1.15,2013-10-15 08:55:00,
2013-10-15 02:05:00,30.1,26.4,30.49,South,178,0.0,0.0,86,0.00,,,0.00,0,Wunderground v.1.15,2013-10-15 09:05:00,
2013-10-15 02:15:00,30.1,26.1,30.48,South,178,0.0,0.0,85,0.00,,,0.00,0,Wunderground v.1.15,2013-10-15 09:15:00,
2013-10-15 02:25:00,30.0,26.0,30.48,South,178,0.0,0.0,85,0.00,,,0.00,0,Wunderground v.1.15,2013-10-15 09:25:00,
2013-10-15 02:35:00,29.8,25.8,30.48,South,178,0.0,0.0,85,0.00,,,0.00,0,Wunderground v.1.15,2013-10-15 09:35:00,
2013-10-15 02:45:00,29.5,25.5,30.48,South,178,0.0,0.0,85,0.00,,,0.00,0,Wunderground v.1.15,2013-10-15 09:45:00,
2013-10-15 02:50:00,29.4,25.4,30.48,South,178,0.0,0.0,85,0.00,,,0.00,0,Wunderground v.1.15,2013-10-15 09:50:00,
2013-10-15 03:00:00,29.3,25.6,30.48,South,178,0.0,0.0,86,0.00,,,0.00,0,Wunderground v.1.15,2013-10-15 10:00:00,
2013-10-15 03:10:00,29.0,25.1,30.50,South,178,0.0,0.0,85,0.00,,,0.00,0,Wunderground v.1.15,2013-10-15 10:10:00,
2013-10-15 03:20:00,29.1,25.2,30.49,South,178,0.0,0.0,85,0.00,,,0.00,0,Wunderground v.1.15,2013-10-15 10:20:00,
2013-10-15 03:30:00,29.1,25.2,30.49,South,178,0.0,0.0,85,0.00,,,0.00,0,Wunderground v.1.15,2013-10-15 10:30:00,
2013-10-15 03:40:00,29.0,25.1,30.49,South,178,0.0,0.0,85,0.00,,,0.00,0,Wunderground v.1.15,2013-10-15 10:40:00,
2013-10-15 03:50:00,28.8,24.9,30.49,South,178,0.0,0.0,85,0.00,,,0.00,0,Wunderground v.1.15,2013-10-15 10:50:00,
2013-10-15 04:00:00,29.0,25.3,30.49,South,178,0.0,0.0,86,0.00,,,0.00,0,Wunderground v.1.15,2013-10-15 11:00:00,
2013-10-15 04:10:00,29.0,25.3,30.50,South,178,0.0,0.0,86,0.00,,,0.00,0,Wunderground v.1.15,2013-10-15 11:10:00,
2013-10-15 04:20:00,29.0,25.1,30.50,South,178,0.0,0.0,85,0.00,,,0.00,0,Wunderground v.1.15,2013-10-15 11:20:00,
2013-10-15 04:25:00,28.8,24.9,30.50,South,178,0.0,0.0,85,0.00,,,0.00,0,Wunderground v.1.15,2013-10-15 11:25:00,
2013-10-15 04:35:00,28.7,24.8,30.50,South,178,0.0,0.0,85,0.00,,,0.00,0,Wunderground v.1.15,2013-10-15 11:35:00,
2013-10-15 04:45:00,28.8,25.1,30.50,South,178,0.0,0.0,86,0.00,,,0.00,0,Wunderground v.1.15,2013-10-15 11:45:00,
2013-10-15 04:55:00,28.8,24.9,30.50,South,178,0.0,0.0,85,0.00,,,0.00,0,Wunderground v.1.15,2013-10-15 11:55:00,
2013-10-15 05:05:00,28.7,24.8,30.50,South,178,0.0,0.0,85,0.00,,,0.00,0,Wunderground v.1.15,2013-10-15 12:05:00,
2013-10-15 05:15:00,28.7,24.8,30.50,South,178,0.0,0.0,85,0.00,,,0.00,0,Wunderground v.1.15,2013-10-15 12:15:00,
2013-10-15 05:20:00,28.5,24.6,30.50,South,178,0.0,0.0,85,0.00,,,0.00,0,Wunderground v.1.15,2013-10-15 12:20:00,
2013-10-15 05:30:00,28.5,24.6,30.50,South,178,0.0,0.0,85,0.00,,,0.00,0,Wunderground v.1.15,2013-10-15 12:30:00,
2013-10-15 05:40:00,28.5,24.6,30.50,South,178,0.0,0.0,85,0.00,,,0.00,0,Wunderground v.1.15,2013-10-15 12:40:00,
2013-10-15 05:50:00,28.4,24.5,30.50,South,178,0.0,0.0,85,0.00,,,0.00,0,Wunderground v.1.15,2013-10-15 12:50:00,
2013-10-15 05:55:00,28.4,24.5,30.50,South,178,0.0,0.0,85,0.00,,,0.00,0,Wunderground v.1.15,2013-10-15 12:55:00,
2013-10-15 06:00:00,28.2,24.0,30.50,South,178,0.0,0.0,84,0.00,,,0.00,0,Wunderground v.1.15,2013-10-15 13:00:00,
2013-10-15 06:10:00,27.9,23.7,30.51,South,178,0.0,0.0,84,0.00,,,0.00,0,Wunderground v.1.15,2013-10-15 13:10:00,
2013-10-15 06:15:00,27.8,23.9,30.51,South,178,0.0,0.0,85,0.00,,,0.00,0,Wunderground v.1.15,2013-10-15 13:15:00,
2013-10-15 06:25:00,27.8,23.9,30.51,South,178,0.0,0.0,85,0.00,,,0.00,0,Wunderground v.1.15,2013-10-15 13:25:00,
2013-10-15 06:30:00,27.6,23.7,30.51,South,178,0.0,0.0,85,0.00,,,0.00,0,Wunderground v.1.15,2013-10-15 13:30:00,
2013-10-15 06:40:00,27.6,23.7,30.51,South,178,0.0,0.0,85,0.00,,,0.00,0,Wunderground v.1.15,2013-10-15 13:40:00,
2013-10-15 06:50:00,27.6,23.7,30.51,South,178,0.0,0.0,85,0.00,,,0.00,0,Wunderground v.1.15,2013-10-15 13:50:00,
2013-10-15 07:00:00,27.5,23.3,30.51,South,178,0.0,0.0,84,0.00,,,0.00,0,Wunderground v.1.15,2013-10-15 14:00:00,
2013-10-15 07:10:00,27.5,23.6,30.51,South,178,0.0,0.0,85,0.00,,,0.00,0,Wunderground v.1.15,2013-10-15 14:10:00,
2013-10-15 07:20:00,27.6,23.7,30.51,South,178,0.0,0.0,85,0.00,,,0.00,5,Wunderground v.1.15,2013-10-15 14:20:00,
2013-10-15 07:30:00,27.6,23.4,30.51,South,178,0.0,0.0,84,0.00,,,0.00,7,Wunderground v.1.15,2013-10-15 14:30:00,
2013-10-15 07:40:00,27.8,23.9,30.51,South,178,0.0,0.0,85,0.00,,,0.00,11,Wunderground v.1.15,2013-10-15 14:40:00,
2013-10-15 07:50:00,27.9,24.0,30.51,South,178,0.0,0.0,85,0.00,,,0.00,16,Wunderground v.1.15,2013-10-15 14:50:00,
2013-10-15 08:00:00,28.2,24.3,30.51,South,178,0.0,0.0,85,0.00,,,0.00,23,Wunderground v.1.15,2013-10-15 15:00:00,
2013-10-15 08:05:00,28.2,24.0,30.52,South,178,0.0,0.0,84,0.00,,,0.00,26,Wunderground v.1.15,2013-10-15 15:05:00,
2013-10-15 08:15:00,28.7,24.8,30.51,South,178,0.0,0.0,85,0.00,,,0.00,30,Wunderground v.1.15,2013-10-15 15:15:00,
2013-10-15 08:25:00,29.5,25.5,30.51,South,179,0.0,0.0,85,0.00,,,0.00,32,Wunderground v.1.15,2013-10-15 15:25:00,
2013-10-15 08:35:00,30.3,26.3,30.51,South,178,0.0,0.0,85,0.00,,,0.00,32,Wunderground v.1.15,2013-10-15 15:35:00,
2013-10-15 08:45:00,32.2,28.5,30.50,South,178,0.0,0.0,86,0.00,,,0.00,183,Wunderground v.1.15,2013-10-15 15:45:00,
2013-10-15 08:55:00,34.1,30.1,30.49,South,179,0.0,0.0,85,0.00,,,0.00,174,Wunderground v.1.15,2013-10-15 15:55:00,
2013-10-15 09:05:00,35.8,31.1,30.49,South,179,0.0,0.0,83,0.00,,,0.00,202,Wunderground v.1.15,2013-10-15 16:05:00,
2013-10-15 09:15:00,38.2,32.9,30.48,South,179,0.0,0.0,81,0.00,,,0.00,258,Wunderground v.1.15,2013-10-15 16:15:00,
2013-10-15 09:25:00,40.9,34.2,30.47,South,178,0.0,0.0,77,0.00,,,0.00,322,Wunderground v.1.15,2013-10-15 16:25:00,
2013-10-15 09:30:00,41.8,35.1,30.47,South,178,0.0,0.0,77,0.00,,,0.00,359,Wunderground v.1.15,2013-10-15 16:30:00,
2013-10-15 09:40:00,42.6,34.2,30.46,South,178,0.0,0.0,72,0.00,,,0.00,411,Wunderground v.1.15,2013-10-15 16:40:00,
2013-10-15 09:50:00,44.6,34.7,30.45,South,178,0.0,1.0,68,0.00,,,0.00,466,Wunderground v.1.15,2013-10-15 16:50:00,
2013-10-15 09:55:00,45.5,34.4,30.44,South,178,0.0,1.0,65,0.00,,,0.00,476,Wunderground v.1.15,2013-10-15 16:55:00,
2013-10-15 10:05:00,46.0,34.1,30.44,South,178,1.0,1.0,63,0.00,,,0.00,334,Wunderground v.1.15,2013-10-15 17:05:00,
2013-10-15 10:10:00,46.1,33.4,30.44,South,178,1.0,1.0,61,0.00,,,0.00,406,Wunderground v.1.15,2013-10-15 17:10:00,
2013-10-15 10:20:00,46.5,32.9,30.44,ESE,105,0.0,0.0,59,0.00,,,0.00,255,Wunderground v.1.15,2013-10-15 17:20:00,
2013-10-15 10:30:00,47.1,33.1,30.43,ESE,105,0.0,0.0,58,0.00,,,0.00,285,Wunderground v.1.15,2013-10-15 17:30:00,
2013-10-15 10:35:00,47.6,34.0,30.43,ESE,105,0.0,0.0,59,0.00,,,0.00,295,Wunderground v.1.15,2013-10-15 17:35:00,
2013-10-15 10:40:00,48.2,34.1,30.43,ESE,105,0.0,0.0,58,0.00,,,0.00,269,Wunderground v.1.15,2013-10-15 17:40:00,
2013-10-15 10:50:00,48.5,34.4,30.42,ESE,105,0.0,0.0,58,0.00,,,0.00,167,Wunderground v.1.15,2013-10-15 17:50:00,
2013-10-15 11:00:00,48.0,33.5,30.43,ESE,105,0.0,0.0,57,0.00,,,0.00,111,Wunderground v.1.15,2013-10-15 18:00:00,
2013-10-15 11:10:00,48.2,34.5,30.42,ESE,111,0.0,0.0,59,0.00,,,0.00,334,Wunderground v.1.15,2013-10-15 18:10:00,
2013-10-15 11:20:00,49.2,34.2,30.41,SE,128,2.0,2.0,56,0.00,,,0.00,508,Wunderground v.1.15,2013-10-15 18:20:00,
2013-10-15 11:30:00,50.4,35.3,30.40,SE,128,1.0,5.0,56,0.00,,,0.00,513,Wunderground v.1.15,2013-10-15 18:30:00,
2013-10-15 11:40:00,50.7,34.2,30.40,SE,126,1.0,1.0,53,0.00,,,0.00,529,Wunderground v.1.15,2013-10-15 18:40:00,
2013-10-15 11:50:00,51.3,34.7,30.39,SE,124,1.0,1.0,53,0.00,,,0.00,269,Wunderground v.1.15,2013-10-15 18:50:00,
2013-10-15 11:55:00,51.0,34.0,30.39,SSE,157,2.0,2.0,52,0.00,,,0.00,520,Wunderground v.1.15,2013-10-15 18:55:00,
2013-10-15 12:05:00,52.6,35.0,30.38,SE,133,2.0,4.0,51,0.00,,,0.00,570,Wunderground v.1.15,2013-10-15 19:05:00,
2013-10-15 12:15:00,52.9,34.8,30.37,SE,134,2.0,3.0,50,0.00,,,0.00,371,Wunderground v.1.15,2013-10-15 19:15:00,
2013-10-15 12:25:00,53.1,34.9,30.37,SE,138,2.0,3.0,50,0.00,,,0.00,580,Wunderground v.1.15,2013-10-15 19:25:00,
2013-10-15 12:35:00,52.9,34.2,30.36,ESE,119,3.0,4.0,49,0.00,,,0.00,309,Wunderground v.1.15,2013-10-15 19:35:00,
2013-10-15 12:45:00,53.8,34.0,30.36,SE,131,2.0,3.0,47,0.00,,,0.00,455,Wunderground v.1.15,2013-10-15 19:45:00,
2013-10-15 12:55:00,53.9,34.6,30.35,SSE,155,2.0,3.0,48,0.00,,,0.00,352,Wunderground v.1.15,2013-10-15 19:55:00,
2013-10-15 13:05:00,53.6,33.8,30.35,SE,129,1.0,2.0,47,0.00,,,0.00,299,Wunderground v.1.15,2013-10-15 20:05:00,
2013-10-15 13:10:00,53.8,34.0,30.34,ESE,112,2.0,2.0,47,0.00,,,0.00,297,Wunderground v.1.15,2013-10-15 20:10:00,
2013-10-15 13:20:00,54.5,34.7,30.34,SE,138,2.0,2.0,47,0.00,,,0.00,397,Wunderground v.1.15,2013-10-15 20:20:00,
2013-10-15 13:30:00,55.3,34.3,30.33,ENE,63,1.0,5.0,45,0.00,,,0.00,338,Wunderground v.1.15,2013-10-15 20:30:00,
2013-10-15 13:40:00,55.7,35.2,30.32,ENE,74,2.0,2.0,46,0.00,,,0.00,318,Wunderground v.1.15,2013-10-15 20:40:00,
2013-10-15 13:45:00,55.7,34.1,30.32,SSE,149,2.0,2.0,44,0.00,,,0.00,295,Wunderground v.1.15,2013-10-15 20:45:00,
2013-10-15 13:50:00,55.7,34.1,30.32,SE,126,2.0,2.0,44,0.00,,,0.00,338,Wunderground v.1.15,2013-10-15 20:50:00,
2013-10-15 14:00:00,56.0,34.4,30.31,SE,140,2.0,3.0,44,0.00,,,0.00,258,Wunderground v.1.15,2013-10-15 21:00:00,
2013-10-15 14:10:00,56.0,34.4,30.31,SE,136,2.0,2.0,44,0.00,,,0.00,232,Wunderground v.1.15,2013-10-15 21:10:00,
2013-10-15 14:20:00,56.0,34.4,30.31,SE,126,1.0,4.0,44,0.00,,,0.00,227,Wunderground v.1.15,2013-10-15 21:20:00,
2013-10-15 14:25:00,56.0,34.4,30.31,SE,134,1.0,4.0,44,0.00,,,0.00,236,Wunderground v.1.15,2013-10-15 21:25:00,
2013-10-15 14:30:00,56.2,35.1,30.30,SE,126,1.0,2.0,45,0.00,,,0.00,350,Wunderground v.1.15,2013-10-15 21:30:00,
2013-10-15 14:40:00,56.3,34.1,30.30,East,94,2.0,2.0,43,0.00,,,0.00,199,Wunderground v.1.15,2013-10-15 21:40:00,
2013-10-15 14:45:00,56.3,34.1,30.30,SE,130,1.0,2.0,43,0.00,,,0.00,209,Wunderground v.1.15,2013-10-15 21:45:00,
2013-10-15 14:50:00,56.6,34.9,30.29,SE,130,1.0,1.0,44,0.00,,,0.00,204,Wunderground v.1.15,2013-10-15 21:50:00,
2013-10-15 15:00:00,56.5,34.8,30.29,SE,132,1.0,1.0,44,0.00,,,0.00,172,Wunderground v.1.15,2013-10-15 22:00:00,
2013-10-15 15:10:00,56.7,35.0,30.29,SE,131,0.0,0.0,44,0.00,,,0.00,160,Wunderground v.1.15,2013-10-15 22:10:00,
2013-10-15 15:15:00,56.6,34.3,30.29,SE,132,0.0,0.0,43,0.00,,,0.00,151,Wunderground v.1.15,2013-10-15 22:15:00,
2013-10-15 15:20:00,56.5,34.8,30.30,SE,143,0.0,0.0,44,0.00,,,0.00,151,Wunderground v.1.15,2013-10-15 22:20:00,
2013-10-15 15:30:00,56.7,34.4,30.29,SE,143,0.0,3.0,43,0.00,,,0.00,492,Wunderground v.1.15,2013-10-15 22:30:00,
2013-10-15 15:40:00,57.6,34.1,30.29,SSE,147,1.0,1.0,41,0.00,,,0.00,380,Wunderground v.1.15,2013-10-15 22:40:00,
2013-10-15 15:45:00,57.5,34.6,30.28,SSE,147,1.0,1.0,42,0.00,,,0.00,135,Wunderground v.1.15,2013-10-15 22:45:00,
2013-10-15 15:55:00,57.2,38.7,30.28,SSE,147,0.0,0.0,50,0.00,,,0.00,113,Wunderground v.1.15,2013-10-15 22:55:00,
2013-10-15 16:00:00,56.6,39.2,30.28,SSE,147,0.0,0.0,52,0.00,,,0.00,105,Wunderground v.1.15,2013-10-15 23:00:00,
2013-10-15 16:10:00,55.9,40.9,30.28,SSE,147,0.0,0.0,57,0.00,,,0.00,98,Wunderground v.1.15,2013-10-15 23:10:00,
2013-10-15 16:20:00,55.6,41.9,30.27,SSE,147,0.0,0.0,60,0.00,,,0.00,91,Wunderground v.1.15,2013-10-15 23:20:00,
2013-10-15 16:30:00,55.1,41.9,30.27,SSE,147,0.0,0.0,61,0.00,,,0.00,67,Wunderground v.1.15,2013-10-15 23:30:00,
2013-10-15 16:40:00,54.5,41.7,30.27,SSE,147,0.0,0.0,62,0.00,,,0.00,83,Wunderground v.1.15,2013-10-15 23:40:00,
2013-10-15 16:45:00,54.1,41.4,30.27,SSE,147,0.0,0.0,62,0.00,,,0.00,88,Wunderground v.1.15,2013-10-15 23:45:00,
2013-10-15 16:55:00,53.1,41.2,30.27,SSE,147,0.0,0.0,64,0.00,,,0.00,70,Wunderground v.1.15,2013-10-15 23:55:00,
2013-10-15 17:30:00,51.9,40.9,30.27,SSE,147,0.0,0.0,66,0.00,,,0.00,30,Wunderground v.1.15,2013-10-16 00:30:00,
2013-10-15 17:35:00,51.4,40.8,30.27,SSE,147,0.0,0.0,67,0.00,,,0.00,25,Wunderground v.1.15,2013-10-16 00:35:00,
2013-10-15 17:40:00,51.0,40.4,30.27,SSE,147,0.0,0.0,67,0.00,,,0.00,23,Wunderground v.1.15,2013-10-16 00:40:00,
2013-10-15 17:50:00,50.1,39.6,30.27,SSE,147,0.0,0.0,67,0.00,,,0.00,12,Wunderground v.1.15,2013-10-16 00:50:00,
2013-10-15 18:00:00,49.4,38.9,30.27,SSE,147,0.0,0.0,67,0.00,,,0.00,7,Wunderground v.1.15,2013-10-16 01:00:00,
2013-10-15 18:10:00,48.5,38.4,30.27,SSE,147,0.0,0.0,68,0.00,,,0.00,0,Wunderground v.1.15,2013-10-16 01:10:00,
2013-10-15 18:20:00,47.6,37.9,30.27,SSE,147,0.0,0.0,69,0.00,,,0.00,0,Wunderground v.1.15,2013-10-16 01:20:00,
2013-10-15 18:30:00,46.5,36.9,30.28,SSE,147,0.0,0.0,69,0.00,,,0.00,0,Wunderground v.1.15,2013-10-16 01:30:00,
2013-10-15 18:40:00,45.8,36.9,30.28,SSE,147,0.0,0.0,71,0.00,,,0.00,0,Wunderground v.1.15,2013-10-16 01:40:00,
2013-10-15 18:45:00,45.4,36.5,30.27,SSE,147,0.0,0.0,71,0.00,,,0.00,0,Wunderground v.1.15,2013-10-16 01:45:00,
2013-10-15 18:55:00,44.6,36.5,30.28,SSE,147,0.0,0.0,73,0.00,,,0.00,0,Wunderground v.1.15,2013-10-16 01:55:00,
2013-10-15 19:05:00,44.5,36.7,30.28,SSE,147,0.0,0.0,74,0.00,,,0.00,0,Wunderground v.1.15,2013-10-16 02:05:00,
2013-10-15 19:10:00,44.3,36.2,30.28,SSE,147,0.0,0.0,73,0.00,,,0.00,0,Wunderground v.1.15,2013-10-16 02:10:00,
2013-10-15 19:20:00,44.2,36.4,30.28,SSE,147,0.0,0.0,74,0.00,,,0.00,0,Wunderground v.1.15,2013-10-16 02:20:00,
2013-10-15 19:30:00,43.9,36.1,30.28,SSE,147,0.0,0.0,74,0.00,,,0.00,0,Wunderground v.1.15,2013-10-16 02:30:00,
2013-10-15 19:40:00,43.8,36.4,30.27,SSE,147,0.0,0.0,75,0.00,,,0.00,0,Wunderground v.1.15,2013-10-16 02:40:00,
2013-10-15 19:50:00,43.6,36.2,30.27,SSE,147,0.0,0.0,75,0.00,,,0.00,0,Wunderground v.1.15,2013-10-16 02:50:00,
2013-10-15 20:00:00,43.8,36.4,30.27,SSE,147,0.0,0.0,75,0.00,,,0.00,0,Wunderground v.1.15,2013-10-16 03:00:00,
2013-10-15 20:10:00,43.8,36.4,30.26,SSE,147,0.0,0.0,75,0.00,,,0.00,0,Wunderground v.1.15,2013-10-16 03:10:00,
2013-10-15 20:15:00,43.8,36.7,30.26,SSE,147,0.0,0.0,76,0.00,,,0.00,0,Wunderground v.1.15,2013-10-16 03:15:00,
2013-10-15 20:25:00,43.6,36.5,30.26,SSE,147,0.0,0.0,76,0.00,,,0.00,0,Wunderground v.1.15,2013-10-16 03:25:00,
2013-10-15 20:35:00,43.5,36.4,30.26,SSE,147,0.0,0.0,76,0.00,,,0.00,0,Wunderground v.1.15,2013-10-16 03:35:00,
2013-10-15 20:40:00,43.3,36.2,30.26,SSE,147,0.0,0.0,76,0.00,,,0.00,0,Wunderground v.1.15,2013-10-16 03:40:00,
2013-10-15 20:50:00,43.3,36.2,30.26,SSE,147,0.0,0.0,76,0.00,,,0.00,0,Wunderground v.1.15,2013-10-16 03:50:00,
2013-10-15 20:55:00,43.3,36.2,30.26,SSE,147,0.0,0.0,76,0.00,,,0.00,0,Wunderground v.1.15,2013-10-16 03:55:00,
2013-10-15 21:05:00,43.3,36.2,30.23,SSE,147,0.0,0.0,76,0.00,,,0.00,0,Wunderground v.1.15,2013-10-16 04:05:00,
2013-10-15 21:10:00,43.5,36.4,30.23,SSE,147,0.0,0.0,76,0.00,,,0.00,0,Wunderground v.1.15,2013-10-16 04:10:00,
2013-10-15 21:15:00,43.5,36.4,30.23,SSE,147,0.0,0.0,76,0.00,,,0.00,0,Wunderground v.1.15,2013-10-16 04:15:00,
2013-10-15 21:20:00,43.5,36.4,30.23,SSE,147,0.0,0.0,76,0.00,,,0.00,0,Wunderground v.1.15,2013-10-16 04:20:00,
2013-10-15 21:30:00,43.5,36.4,30.23,SSE,147,0.0,0.0,76,0.00,,,0.00,0,Wunderground v.1.15,2013-10-16 04:30:00,
2013-10-15 21:40:00,43.6,36.9,30.22,SSE,147,0.0,0.0,77,0.00,,,0.00,0,Wunderground v.1.15,2013-10-16 04:40:00,
2013-10-15 21:45:00,43.8,36.7,30.23,SSE,147,0.0,0.0,76,0.00,,,0.00,0,Wunderground v.1.15,2013-10-16 04:45:00,
2013-10-15 21:50:00,43.8,37.1,30.23,SSE,147,0.0,0.0,77,0.00,,,0.00,0,Wunderground v.1.15,2013-10-16 04:50:00,
2013-10-15 22:00:00,43.8,37.1,30.22,SSE,147,0.0,0.0,77,0.00,,,0.00,0,Wunderground v.1.15,2013-10-16 05:00:00,
2013-10-15 22:05:00,43.8,37.1,30.22,SSE,147,0.0,0.0,77,0.00,,,0.00,0,Wunderground v.1.15,2013-10-16 05:05:00,
2013-10-15 22:15:00,43.9,36.8,30.22,SSE,147,0.0,0.0,76,0.00,,,0.00,0,Wunderground v.1.15,2013-10-16 05:15:00,
2013-10-15 22:20:00,43.9,36.8,30.22,SSE,147,0.0,0.0,76,0.00,,,0.00,0,Wunderground v.1.15,2013-10-16 05:20:00,
2013-10-15 22:30:00,44.2,37.1,30.22,SSE,147,0.0,0.0,76,0.00,,,0.00,0,Wunderground v.1.15,2013-10-16 05:30:00,
2013-10-15 22:40:00,44.2,37.4,30.22,SSE,147,0.0,0.0,77,0.00,,,0.00,0,Wunderground v.1.15,2013-10-16 05:40:00,
2013-10-15 22:50:00,44.3,37.5,30.22,SSE,147,0.0,0.0,77,0.00,,,0.00,0,Wunderground v.1.15,2013-10-16 05:50:00,
2013-10-15 23:00:00,44.1,37.3,30.22,SSE,147,0.0,0.0,77,0.00,,,0.00,0,Wunderground v.1.15,2013-10-16 06:00:00,
2013-10-15 23:10:00,44.2,37.4,30.21,SSE,147,0.0,0.0,77,0.00,,,0.00,0,Wunderground v.1.15,2013-10-16 06:10:00,
2013-10-15 23:20:00,44.1,37.7,30.21,SSE,147,0.0,0.0,78,0.00,,,0.00,0,Wunderground v.1.15,2013-10-16 06:20:00,
2013-10-15 23:30:00,44.2,37.4,30.20,SSE,147,0.0,0.0,77,0.00,,,0.00,0,Wunderground v.1.15,2013-10-16 06:30:00,
2013-10-15 23:40:00,44.5,37.7,30.20,SSE,147,0.0,0.0,77,0.00,,,0.00,0,Wunderground v.1.15,2013-10-16 06:40:00,
2013-10-15 23:50:00,44.5,37.7,30.20,SSE,147,0.0,0.0,77,0.00,,,0.00,0,Wunderground v.1.15,2013-10-16 06:50:00,